Location: Fort Wayne
(41.1310°N, 85.1290°W)
Time: 01:08:56
(UTC-05:00)

Cosmos 1000 Rocket - Visible Passes

Search period start: 21 December 2014 00:00
Search period end: 31 December 2014 00:00
Orbit: 954 x 992 km, 82.9° (Epoch: 19 December)

Date Brightness Start Highest point End Pass type
(mag) Time Alt. Az. Time Alt. Az. Time Alt. Az.
21 Dec 7.2 05:55:27 10° ESE 05:59:15 17° E 06:03:03 10° NE visible
21 Dec 4.5 18:33:25 10° N 18:39:42 88° W 18:45:53 10° S visible
21 Dec 7.4 20:21:50 10° WNW 20:23:59 12° WNW 20:26:09 10° W visible
22 Dec 6.4 06:18:13 10° SE 06:23:35 30° E 06:28:58 10° NNE visible
22 Dec 5.4 18:58:21 10° NNW 19:04:20 49° W 19:10:13 10° SSW visible
23 Dec 5.4 06:41:59 10° SSE 06:48:05 54° E 06:54:13 10° NNE visible
23 Dec 4.8 17:37:50 10° N 17:43:46 44° ENE 17:49:36 10° SSE visible
23 Dec 6.5 19:23:41 10° NNW 19:28:48 28° W 19:33:52 10° SW visible
24 Dec 7.4 05:25:29 10° ESE 05:28:22 14° E 05:31:15 10° NE visible
24 Dec 4.6 07:06:26 10° S 07:12:45 86° W 07:19:07 10° N visible
24 Dec 4.5 18:02:22 10° N 18:08:38 78° E 18:14:47 10° S visible
24 Dec 7.3 19:49:49 10° NW 19:53:06 15° W 19:56:23 10° WSW visible
25 Dec 6.7 05:47:41 10° SE 05:52:39 25° E 05:57:37 10° NNE visible
25 Dec 4.8 07:31:30 10° SSW 07:37:35 49° WNW 07:43:42 10° N visible
25 Dec 5.1 18:27:12 10° NNW 18:33:19 60° W 18:39:21 10° S visible
26 Dec 5.7 06:11:10 10° SSE 06:17:06 45° E 06:23:02 10° NNE visible
26 Dec 6.2 18:52:23 10° NNW 18:57:50 33° W 19:03:14 10° SSW visible
27 Dec 7.5 04:56:14 10° E 04:57:30 11° ENE 04:58:45 10° ENE visible
27 Dec 4.7 06:35:24 10° S 06:41:42 79° E 06:48:02 10° N visible
27 Dec 7.1 19:18:09 10° NW 19:22:12 18° W 19:26:13 10° WSW visible
28 Dec 6.9 05:17:15 10° SE 05:21:43 21° E 05:26:11 10° NE visible
28 Dec 4.6 07:00:16 10° SSW 07:06:29 60° W 07:12:44 10° N visible
28 Dec 4.8 17:56:05 10° NNW 18:02:17 73° W 18:08:23 10° S visible
29 Dec 6.0 05:40:26 10° SSE 05:46:07 37° E 05:51:49 10° NNE visible
29 Dec 5.1 07:25:47 10° SW 07:31:25 34° WNW 07:37:06 10° N visible
29 Dec 5.9 18:21:08 10° NNW 18:26:52 40° W 18:32:31 10° SSW visible
30 Dec 4.9 06:04:27 10° S 06:10:41 66° E 06:16:56 10° NNE visible
30 Dec 6.9 18:46:40 10° NW 18:51:16 22° W 18:55:51 10° SW visible
